Location: Paddlesworth
(51.1000°N, 1.1333°E)
Time: 06:58:41
(UTC+00:00)

SL-24 R/B - RUBIN 2 - Pass Details

Date: 11 May 2021
Orbit: 583 x 1012 km, 64.6° (Epoch: 20 June)

Event Time Altitude Azimuth Distance (km) Brightness Sun altitude
Rises 22:02:23 0° 317° (NW) 3,463 8.9 -16.7°
Reaches altitude 10° 22:05:01 10° 317° (NW) 2,454 7.8 -16.9°
Maximum altitude 22:10:40 86° 231° (SW) 768 3.9 -17.3°
Enters shadow 22:13:07 31° 143° (SE) 1,253 4.6 -17.5°
